When you browse on this site, cookies collect data to enhance your experience and personalize the content and advertising you see.
Visit our Privacy Policy to learn more. By continuing to use the site, you agree to this use of cookies and data.
  • en Belgique
  • Liste des pays
  • À 7 jours
  • Température de l'eau
  • Carte météo
  • Widgets météo
  • user-avatar
    Se connecter

    Météo par heure à Rogachevka

    Ce jour, 25 Février, Mardi

    Heure Température Précipitation Vent Pression Humidité
    00:00 -5°C° 0 mm 3 m/s 726 mmHg 88%
    01:00 -4°C° 0 mm 4 m/s 726 mmHg 89%
    02:00 -5°C° 0 mm 5 m/s 727 mmHg 90%
    03:00 -5°C° 0 mm 5 m/s 727 mmHg 90%
    04:00 -5°C° 0 mm 5 m/s 727 mmHg 89%
    05:00 -6°C° 0 mm 6 m/s 728 mmHg 89%
    06:00 -6°C° 0 mm 6 m/s 728 mmHg 88%
    07:00 -6°C° 0 mm 6 m/s 729 mmHg 88%
    08:00 -8°C° 0 mm 6 m/s 729 mmHg 88%
    09:00 -8°C° 0 mm 6 m/s 730 mmHg 88%
    10:00 -6°C° 0 mm 6 m/s 730 mmHg 86%
    11:00 -5°C° 0 mm 6 m/s 730 mmHg 85%
    12:00 -4°C° 0 mm 5 m/s 731 mmHg 84%
    13:00 -4°C° 0 mm 5 m/s 731 mmHg 83%
    14:00 -4°C° 0 mm 5 m/s 731 mmHg 82%
    15:00 -2°C° 0 mm 4 m/s 732 mmHg 81%
    16:00 -3°C° 0 mm 4 m/s 732 mmHg 81%
    17:00 -4°C° 0 mm 3 m/s 732 mmHg 81%
    18:00 -6°C° 0 mm 3 m/s 732 mmHg 81%
    19:00 -6°C° 0 mm 3 m/s 732 mmHg 82%
    20:00 -6°C° 0 mm 3 m/s 732 mmHg 82%
    21:00 -7°C° 0 mm 3 m/s 733 mmHg 83%
    22:00 -7°C° 0 mm 3 m/s 732 mmHg 86%
    23:00 -7°C° 0 mm 3 m/s 732 mmHg 88%

    Demain, 26 Février, Mercredi

    Heure Température Précipitation Vent Pression Humidité
    00:00 -7°C° 0 mm 3 m/s 732 mmHg 91%
    01:00 -7°C° 0 mm 3 m/s 732 mmHg 91%
    02:00 -7°C° 0 mm 3 m/s 732 mmHg 92%
    03:00 -7°C° 0 mm 3 m/s 732 mmHg 92%
    04:00 -8°C° 0 mm 4 m/s 731 mmHg 92%
    05:00 -8°C° 0 mm 4 m/s 731 mmHg 92%
    06:00 -7°C° 0 mm 5 m/s 730 mmHg 92%
    07:00 -7°C° 0 mm 5 m/s 730 mmHg 92%
    08:00 -6°C° 0 mm 5 m/s 730 mmHg 93%
    09:00 -6°C° 0 mm 5 m/s 729 mmHg 93%
    10:00 -5°C° 0.1 mm 5 m/s 729 mmHg 95%
    11:00 -4°C° 0.1 mm 6 m/s 729 mmHg 97%
    12:00 -3°C° 0.1 mm 6 m/s 728 mmHg 99%
    13:00 -3°C° 0.2 mm 6 m/s 728 mmHg 99%
    14:00 -2°C° 0.2 mm 6 m/s 728 mmHg 99%
    15:00 -2°C° 0.2 mm 6 m/s 727 mmHg 99%
    16:00 -2°C° 0.1 mm 6 m/s 727 mmHg 99%
    17:00 -2°C° 0.1 mm 6 m/s 727 mmHg 98%
    18:00 -2°C° 0.1 mm 6 m/s 727 mmHg 97%
    19:00 -2°C° 0.1 mm 6 m/s 727 mmHg 97%
    20:00 -1°C° 0.1 mm 5 m/s 727 mmHg 97%
    21:00 -1°C° 0.1 mm 5 m/s 727 mmHg 97%
    22:00 -1°C° 0.3 mm 5 m/s 726 mmHg 97%
    23:00 -1°C° 0.3 mm 4 m/s 726 mmHg 97%

    Après-demain, 27 Février, Jeudi

    Heure Température Précipitation Vent Pression Humidité
    00:00 -1°C° 0.3 mm 4 m/s 726 mmHg 98%
    01:00 -1°C° 0.1 mm 4 m/s 726 mmHg 96%
    02:00 -1°C° 0.1 mm 4 m/s 726 mmHg 95%
    03:00 -1°C° 0.1 mm 4 m/s 725 mmHg 94%
    04:00 -1°C° 0 mm 4 m/s 725 mmHg 95%
    05:00 -1°C° 0 mm 5 m/s 725 mmHg 95%
    06:00 -1°C° 0 mm 5 m/s 724 mmHg 95%
    07:00 -1°C° 0 mm 5 m/s 724 mmHg 97%
    08:00 -1°C° 0 mm 5 m/s 724 mmHg 98%
    09:00 -1°C° 0 mm 5 m/s 724 mmHg 99%
    10:00 -1°C° 0 mm 5 m/s 724 mmHg 99%
    11:00 -1°C° 0 mm 5 m/s 724 mmHg 99%
    12:00 -1°C° 0 mm 5 m/s 724 mmHg 99%
    13:00 -1°C° 0 mm 5 m/s 724 mmHg 99%
    14:00 -1°C° 0 mm 5 m/s 724 mmHg 99%
    15:00 0°C° 0 mm 5 m/s 724 mmHg 99%
    16:00 0°C° 0.1 mm 5 m/s 724 mmHg 99%
    17:00 0°C° 0.1 mm 4 m/s 724 mmHg 99%
    18:00 0°C° 0.1 mm 4 m/s 724 mmHg 99%
    19:00 0°C° 0.1 mm 4 m/s 724 mmHg 99%
    20:00 0°C° 0.1 mm 3 m/s 725 mmHg 99%
    21:00 0°C° 0.1 mm 3 m/s 725 mmHg 98%
    22:00 0°C° 0 mm 3 m/s 725 mmHg 98%
    23:00 0°C° 0 mm 3 m/s 725 mmHg 97%

    28 Février, Vendredi

    Heure Température Précipitation Vent Pression Humidité
    00:00 +1°C° 0 mm 2 m/s 725 mmHg 97%
    01:00 -1°C° 0 mm 2 m/s 725 mmHg 96%
    02:00 +1°C° 0 mm 1 m/s 725 mmHg 95%
    03:00 -1°C° 0 mm 0 m/s 725 mmHg 93%
    04:00 +1°C° 0 mm 1 m/s 725 mmHg 93%
    05:00 +1°C° 0 mm 1 m/s 725 mmHg 93%
    06:00 +1°C° 0 mm 1 m/s 725 mmHg 93%
    07:00 -1°C° 0.5 mm 2 m/s 725 mmHg 94%
    08:00 -1°C° 0.5 mm 2 m/s 725 mmHg 96%
    09:00 -1°C° 0.5 mm 3 m/s 725 mmHg 97%
    10:00 -1°C° 0.7 mm 3 m/s 724 mmHg 98%
    11:00 -2°C° 0.7 mm 4 m/s 724 mmHg 98%
    12:00 -2°C° 0.7 mm 4 m/s 724 mmHg 99%
    13:00 -2°C° 0.5 mm 4 m/s 725 mmHg 97%
    14:00 -2°C° 0.5 mm 4 m/s 725 mmHg 95%
    15:00 -2°C° 0.5 mm 4 m/s 726 mmHg 93%
    16:00 -2°C° 0 mm 4 m/s 726 mmHg 91%
    17:00 -2°C° 0 mm 4 m/s 727 mmHg 88%
    18:00 -2°C° 0 mm 4 m/s 728 mmHg 86%
    19:00 -3°C° 0 mm 4 m/s 729 mmHg 85%
    20:00 -4°C° 0 mm 4 m/s 730 mmHg 83%
    21:00 -4°C° 0 mm 4 m/s 730 mmHg 82%
    22:00 -5°C° 0 mm 4 m/s 731 mmHg 82%
    23:00 -5°C° 0 mm 3 m/s 731 mmHg 83%

    29 Février, Samedi

    Heure Température Précipitation Vent Pression Humidité
    00:00 -5°C° 0 mm 3 m/s 731 mmHg 84%
    01:00 -5°C° 0 mm 3 m/s 732 mmHg 84%
    02:00 -5°C° 0 mm 3 m/s 732 mmHg 85%
    03:00 -5°C° 0 mm 3 m/s 732 mmHg 85%
    04:00 -5°C° 0 mm 3 m/s 732 mmHg 86%
    05:00 -4°C° 0 mm 2 m/s 732 mmHg 86%
    06:00 -4°C° 0 mm 2 m/s 732 mmHg 87%
    07:00 -4°C° 0 mm 2 m/s 733 mmHg 87%
    08:00 -4°C° 0 mm 2 m/s 733 mmHg 88%
    09:00 -3°C° 0 mm 2 m/s 733 mmHg 88%
    10:00 -3°C° 0 mm 2 m/s 733 mmHg 88%
    11:00 -2°C° 0 mm 3 m/s 733 mmHg 87%
    12:00 -1°C° 0 mm 3 m/s 734 mmHg 86%
    13:00 -1°C° 0 mm 3 m/s 733 mmHg 88%
    14:00 -1°C° 0 mm 3 m/s 733 mmHg 89%
    15:00 -1°C° 0 mm 2 m/s 733 mmHg 91%
    16:00 -2°C° 0 mm 2 m/s 733 mmHg 92%
    17:00 -2°C° 0 mm 2 m/s 733 mmHg 94%
    18:00 -3°C° 0 mm 2 m/s 733 mmHg 96%
    19:00 -2°C° 0.5 mm 2 m/s 733 mmHg 96%
    20:00 -2°C° 0.5 mm 2 m/s 733 mmHg 96%
    21:00 -2°C° 0.5 mm 2 m/s 733 mmHg 97%
    22:00 -2°C° 0.1 mm 2 m/s 734 mmHg 95%
    23:00 -2°C° 0.1 mm 2 m/s 734 mmHg 94%

    1 Mars, Dimanche

    Heure Température Précipitation Vent Pression Humidité
    00:00 -3°C° 0.1 mm 2 m/s 734 mmHg 93%
    01:00 -3°C° 0 mm 2 m/s 734 mmHg 94%
    02:00 -3°C° 0 mm 2 m/s 734 mmHg 94%
    03:00 -3°C° 0 mm 2 m/s 734 mmHg 95%
    04:00 -3°C° 0.1 mm 2 m/s 734 mmHg 96%
    05:00 -3°C° 0.1 mm 2 m/s 734 mmHg 96%
    06:00 -3°C° 0.1 mm 2 m/s 734 mmHg 97%
    07:00 -3°C° 0.2 mm 2 m/s 734 mmHg 97%
    08:00 -3°C° 0.2 mm 2 m/s 735 mmHg 97%
    09:00 -2°C° 0.2 mm 2 m/s 735 mmHg 97%
    10:00 -2°C° 0.1 mm 2 m/s 735 mmHg 98%
    11:00 -2°C° 0.1 mm 2 m/s 735 mmHg 98%
    12:00 -1°C° 0.1 mm 3 m/s 736 mmHg 98%
    13:00 -1°C° 0 mm 2 m/s 736 mmHg 99%
    14:00 -1°C° 0 mm 2 m/s 736 mmHg 99%
    15:00 -1°C° 0 mm 2 m/s 736 mmHg 99%
    16:00 0°C° 0 mm 1 m/s 736 mmHg 98%
    17:00 0°C° 0 mm 1 m/s 736 mmHg 97%
    18:00 -1°C° 0 mm 1 m/s 737 mmHg 96%
    19:00 -1°C° 0 mm 1 m/s 737 mmHg 96%
    20:00 -2°C° 0 mm 1 m/s 737 mmHg 96%
    21:00 -2°C° 0 mm 1 m/s 737 mmHg 96%
    22:00 -2°C° 0 mm 1 m/s 737 mmHg 96%
    23:00 -2°C° 0 mm 1 m/s 737 mmHg 96%
    Voir plus